SCP
12 8 6 7 10 13 14 13 12 12 13 12 10 9 9 10 9 8 7 6 4 3 3 2 3 3 3 3 3 3 2 2 1 1 1 1 1 1 1 1 1 1 1
14 9 6 8 11 12 13 13 13 13 13 13 11 10 10 10 9 8 7 6 4 4 3 3 3 3 3 3 3 3 2 2 1 1 1 1 1 1 1 1 2 1 1
15 10 7 10 12 12 12 12 14 14 14 14 13 11 11 11 9 9 8 6 5 5 4 4 4 4 4 3 3 3 3 2 2 1 1 1 1 1 1 1 1 2 2
12 9 8 10 12 12 11 12 15 16 15 14 13 12 12 11 10 10 9 7 7 6 6 5 5 5 4 4 4 3 3 3 2 2 2 2 1 1 1 1 1 1 1
9 8 7 8 9 9 9 10 14 17 17 15 14 14 13 12 11 10 10 9 8 7 7 6 6 5 5 4 4 4 4 4 3 3 2 2 2 2 2 2 2 1 1
8 8 7 6 6 6 6 8 12 16 18 18 17 16 15 14 13 12 11 10 9 8 8 7 7 6 5 5 5 5 5 5 4 4 3 3 3 3 2 2 1 1 1
8 7 6 5 5 5 5 6 9 13 17 19 18 17 16 15 15 14 13 12 11 10 9 8 8 7 7 6 6 6 6 6 6 4 4 3 3 3 3 2 1 1 1
6 5 5 5 5 5 6 8 9 11 13 16 18 17 16 14 13 13 13 13 12 11 10 9 8 8 8 7 7 7 7 7 7 5 4 4 4 3 3 3 2 1 1
5 5 6 6 5 5 7 10 11 11 11 13 15 15 13 12 10 10 10 10 11 11 11 10 8 8 8 8 8 7 7 7 7 6 5 5 4 3 3 3 3 2 2
5 5 7 7 5 5 7 10 11 10 10 10 11 11 11 10 9 8 7 7 8 10 10 10 8 7 7 7 7 6 6 6 6 6 6 5 4 4 3 3 3 2 2
5 5 6 7 7 7 8 9 9 8 8 7 8 8 9 9 9 8 7 6 6 7 8 9 8 8 7 6 6 6 5 5 5 6 6 5 4 4 3 3 3 2 2
5 5 5 7 9 11 11 9 8 8 7 6 6 6 7 8 8 8 8 7 7 7 7 8 9 9 8 7 6 5 5 4 4 4 4 4 4 3 3 3 3 3 3
4 4 5 6 8 10 10 9 9 9 8 6 5 6 6 6 7 8 9 9 8 8 9 9 10 10 9 7 6 5 4 4 4 4 3 3 3 3 3 3 3 3 3
3 4 4 4 5 7 7 7 8 8 7 6 5 6 6 6 6 6 8 9 9 10 11 11 11 10 9 8 7 6 5 5 4 3 3 2 3 3 3 4 4 4 4
3 3 4 5 5 5 5 5 5 6 5 5 4 5 6 6 6 6 6 7 8 9 11 11 11 10 9 9 8 7 6 5 5 4 3 3 3 3 4 4 4 4 4
3 4 6 7 6 5 4 3 3 3 3 3 3 4 6 6 6 6 5 6 6 7 9 10 10 9 9 8 8 8 7 6 6 5 5 4 4 4 3 3 3 3 3
4 5 7 8 7 5 4 3 2 2 2 3 3 4 5 6 7 6 5 5 5 5 6 7 8 8 8 6 5 6 7 7 7 6 6 6 5 4 3 3 3 3 3
5 6 7 7 6 5 3 3 2 2 2 2 3 3 4 6 6 5 5 5 5 5 5 5 6 7 6 5 3 4 6 7 7 6 6 6 6 5 4 4 4 4 3
7 7 7 7 6 5 4 3 3 3 2 2 3 3 4 5 5 5 5 5 5 5 5 5 5 5 5 3 2 2 5 6 6 6 6 6 6 5 5 5 6 5 5
6 6 7 7 6 6 5 4 3 3 3 3 3 4 4 4 4 5 5 6 5 5 5 5 5 5 5 3 1 2 4 6 6 6 6 5 5 4 4 5 6 5 5
6 5 6 7 7 6 5 4 3 3 3 3 3 3 4 4 4 6 6 6 5 5 6 6 6 6 5 3 1 1 3 5 6 6 5 4 3 2 3 3 4 4 4
6 6 6 7 7 5 4 3 3 3 3 3 3 3 4 4 5 6 6 5 5 5 6 6 5 4 4 2 1 1 2 3 5 5 5 3 2 1 1 1 2 2 2
6 6 7 7 6 5 3 3 3 3 3 3 3 3 4 5 6 6 5 4 4 4 5 5 4 3 3 2 1 1 1 1 2 3 3 2 1 0 0 0 0 0 0
4 5 6 6 5 4 3 3 3 3 3 3 3 4 5 6 6 6 5 4 3 3 3 4 4 3 3 2 2 1 0 0 1 2 1 1 0 0 0 0 0 0 1
3 4 4 4 4 3 3 3 4 4 4 4 4 5 5 5 6 5 4 3 3 2 2 3 4 4 3 3 2 2 1 1 1 1 1 1 0 0 0 0 1 1 1
2 3 3 3 3 3 3 3 4 5 5 5 4 5 5 5 5 4 4 3 2 2 2 3 4 4 3 2 2 2 1 1 1 1 1 1 1 1 1 1 1 1 1
Wind_Speed
9 8 7 7 7 6 6 5 4 3 2 2 2 1 1 1 1 2 3 2 2 2 1 1 2 1 2 2 2 2 1 1 1 1 1 1 2 2 2 2 2 3 3
8 8 8 6 6 6 5 5 4 3 2 2 1 1 1 1 2 2 2 2 2 2 3 2 2 2 2 2 2 2 1 1 2 1 1 1 0 1 2 2 2 2 2
9 8 8 7 7 6 5 4 4 3 2 2 1 1 1 1 1 2 2 2 2 2 1 2 2 2 2 2 2 2 2 1 1 1 1 1 1 1 1 2 2 2 2
9 8 7 6 5 5 5 5 4 4 2 1 1 2 2 1 1 1 2 3 2 2 2 2 2 1 1 2 2 2 1 1 1 1 1 1 1 1 1 1 1 2 2
7 8 7 6 5 5 4 5 5 4 3 1 1 1 1 1 1 1 2 3 2 2 2 2 2 1 1 2 2 1 1 1 1 1 1 1 1 1 1 1 1 1 1
7 7 7 6 5 4 4 3 4 4 3 2 1 1 1 0 1 1 2 2 2 2 2 2 2 2 2 2 1 1 2 1 1 1 0 1 1 1 1 1 2 2 2
7 7 6 6 5 4 4 4 2 3 3 3 2 1 1 1 0 1 1 1 2 2 2 3 3 2 2 2 1 1 1 1 0 1 1 1 1 1 1 1 1 1 1
6 6 6 5 5 4 3 4 3 2 2 2 2 1 1 1 0 1 1 1 1 1 2 3 3 3 2 2 2 2 1 1 1 1 1 1 1 1 1 0 1 1 1
6 6 6 5 4 4 3 3 3 2 1 1 1 2 1 1 1 0 2 1 1 2 2 3 3 3 2 2 2 1 1 1 1 1 1 1 1 1 1 1 1 1 1
5 6 6 5 4 3 4 4 3 2 1 0 1 1 1 1 1 1 1 1 0 1 2 3 4 4 3 3 2 2 2 2 1 1 1 2 1 1 1 1 1 1 1
5 6 5 4 4 3 3 3 2 2 1 1 0 0 1 1 1 1 1 1 1 1 2 3 3 3 3 3 3 3 3 3 2 1 1 1 1 1 2 1 1 1 0
4 5 5 4 3 3 3 2 2 1 1 1 0 1 1 1 1 1 1 1 2 2 2 3 3 4 4 3 3 3 3 3 3 3 2 2 1 2 1 1 1 1 1
4 4 4 3 3 2 2 2 1 1 1 0 1 0 1 1 1 2 2 2 2 2 2 2 3 4 3 3 3 3 3 3 3 3 3 2 2 2 1 2 1 2 1
4 4 3 2 3 2 2 2 2 1 1 1 0 1 1 1 1 1 2 2 2 2 3 3 3 3 3 3 3 3 3 3 3 3 3 2 2 2 2 2 2 2 2
3 3 2 1 2 2 1 1 1 1 1 1 1 1 1 2 2 2 2 2 2 3 3 3 3 3 3 3 3 3 4 3 3 3 3 2 2 2 2 2 1 2 2
2 2 2 1 1 1 0 0 1 1 1 1 2 1 1 2 2 2 2 2 3 3 3 3 3 3 2 2 2 2 3 3 3 3 2 3 3 3 3 3 3 3 3
1 2 2 1 1 0 1 1 1 1 2 2 2 1 1 2 2 3 2 2 3 2 3 3 3 2 2 3 3 3 3 3 3 3 3 4 3 3 3 3 4 4 5
1 1 1 1 1 1 1 1 2 2 2 2 3 2 2 2 2 2 2 2 2 2 3 3 3 3 3 4 4 3 3 3 3 3 4 3 2 3 2 3 3 4 4
1 1 1 1 1 1 1 1 2 2 2 3 3 3 3 2 2 2 3 3 3 3 3 3 3 3 3 4 4 4 3 3 4 3 3 3 3 3 3 2 3 3 4
1 1 1 1 1 1 1 1 2 2 2 3 3 3 3 2 2 2 2 2 3 3 3 3 3 3 3 4 5 5 3 3 3 3 3 4 4 3 4 2 3 4 3
1 1 1 1 1 0 1 1 1 2 3 3 2 2 2 2 2 2 2 2 3 3 3 3 3 3 3 5 6 6 3 3 3 2 2 2 4 5 5 4 4 5 4
1 1 1 1 1 1 1 1 1 2 2 3 2 2 2 3 2 2 2 2 3 4 4 3 3 2 3 4 5 7 7 5 3 3 2 2 5 6 6 5 5 5 3
0 1 1 1 1 1 1 1 1 2 2 2 2 2 1 1 1 2 2 2 2 2 2 2 2 2 2 3 4 6 7 6 3 2 1 2 5 5 5 6 6 4 3
0 0 1 1 0 1 0 0 1 2 2 2 1 1 1 1 1 1 1 1 1 1 2 2 2 2 2 1 1 2 3 3 3 2 2 3 4 4 4 3 3 3 3
1 1 0 1 1 0 1 1 2 2 2 2 2 2 2 1 1 1 0 1 1 1 2 2 1 1 1 1 2 2 2 2 2 2 2 2 1 2 3 3 3 4 4
1 1 0 0 0 1 1 1 1 2 1 2 2 2 2 1 1 1 1 1 1 1 1 1 1 0 1 2 2 3 2 2 2 2 2 2 2 2 3 3 3 3 3
Wind_Direction
154 148 145 142 135 127 129 136 139 134 146 146 178 183 180 182 163 141 126 140 164 181 204 170 166 184 152 161 148 136 171 178 162 139 140 174 167 164 164 171 168 164 161
154 148 146 148 140 137 138 140 136 140 149 141 170 194 181 199 161 134 140 147 163 186 191 179 181 174 150 155 150 159 183 186 167 152 148 138 165 238 191 171 173 166 162
158 155 157 155 146 140 139 137 134 139 148 154 162 197 165 188 159 149 147 147 155 169 204 160 176 182 169 173 175 179 191 208 197 166 158 164 180 194 198 188 172 164 160
153 150 149 149 144 145 140 135 137 139 147 170 183 200 172 188 203 162 150 152 162 168 174 160 161 181 166 164 193 177 200 204 224 179 184 169 143 167 171 207 173 172 164
144 141 137 139 140 140 133 139 138 139 151 175 173 209 198 196 166 152 153 155 159 167 158 147 157 172 174 169 182 147 193 205 226 224 190 188 208 225 174 185 186 177 182
127 126 128 130 129 130 127 127 141 147 159 169 184 199 245 260 141 148 169 165 159 168 160 154 168 173 191 172 166 165 192 213 238 250 189 182 193 215 202 191 195 188 193
127 128 131 136 134 136 138 132 132 156 164 169 171 184 227 230 196 216 199 180 178 176 168 171 174 179 194 176 159 158 193 205 178 246 255 259 251 236 227 203 214 206 202
127 131 127 125 130 138 136 134 147 147 159 172 172 179 196 213 221 302 273 206 200 190 165 168 171 179 193 182 169 178 198 186 207 227 264 275 281 279 274 213 193 236 223
132 133 125 127 127 130 130 119 113 119 128 177 200 203 197 182 189 232 286 264 198 178 171 173 168 181 194 184 171 183 192 181 214 236 241 255 261 268 276 255 181 206 239
148 139 135 138 132 129 128 126 125 129 130 173 246 210 193 205 193 197 177 289 283 175 169 180 178 186 191 190 187 192 177 175 208 219 217 247 276 293 280 279 267 249 221
146 136 129 131 126 133 126 124 126 136 153 163 237 279 205 216 223 231 204 205 224 210 189 184 184 194 194 190 187 204 191 190 209 230 212 235 243 280 270 274 270 270 311
135 134 129 127 126 121 115 116 105 135 152 153 162 241 217 212 233 244 241 217 214 218 214 190 186 199 198 195 198 208 199 196 201 206 212 224 239 271 288 283 278 273 230
124 116 112 117 114 100 82 70 59 48 62 105 168 192 207 210 240 255 253 230 227 231 229 205 198 205 200 198 206 209 212 201 203 212 214 208 213 243 272 284 278 272 266
123 113 110 108 102 83 58 21 359 14 351 337 238 202 216 231 248 255 253 244 234 232 225 216 217 208 193 202 213 210 211 203 209 213 214 211 201 210 238 253 261 281 275
133 133 126 100 107 94 79 75 315 333 320 313 284 251 234 231 222 226 238 233 231 229 224 223 222 220 207 206 208 221 210 210 218 216 214 214 191 187 221 249 256 265 268
176 151 125 115 103 89 299 229 270 317 317 292 278 270 255 247 224 216 218 222 220 221 215 223 216 213 216 156 168 215 234 228 226 218 218 222 193 198 212 238 252 247 239
193 158 149 171 190 212 254 269 274 290 290 287 276 264 240 247 243 232 224 221 220 215 212 215 207 185 178 170 175 209 242 243 233 222 223 237 213 200 215 218 226 237 235
173 149 177 183 216 251 250 266 278 281 281 280 284 276 257 246 244 233 223 220 221 223 217 217 211 191 187 182 181 197 227 243 239 234 231 226 222 224 210 236 243 245 247
133 164 193 202 228 251 258 262 266 273 276 274 279 277 267 257 242 226 219 213 211 221 221 214 205 196 181 184 188 189 223 235 235 231 230 222 217 210 191 213 244 256 260
66 126 161 205 216 242 239 264 285 285 283 280 280 278 274 271 254 233 221 218 215 219 221 215 207 196 181 186 194 199 227 239 238 225 222 215 221 193 188 214 239 255 268
84 73 122 132 158 195 184 230 282 292 293 296 282 280 272 254 242 224 220 218 213 216 221 216 204 192 185 183 196 204 223 246 245 238 230 207 190 196 210 220 237 248 262
96 82 100 91 82 127 173 214 281 303 311 308 298 284 280 268 236 180 208 218 220 214 215 208 199 196 185 181 201 209 220 244 253 252 246 192 192 205 220 230 240 246 255
67 103 105 101 97 114 157 202 295 299 290 301 312 298 281 275 253 200 203 211 218 224 220 207 205 203 190 175 188 204 219 232 243 281 302 214 208 214 223 228 228 227 231
323 130 155 168 151 110 78 303 264 274 280 288 297 284 264 247 246 196 207 215 227 239 242 227 222 205 177 161 179 201 215 223 234 264 265 220 212 230 238 228 221 219 230
233 232 209 194 200 171 272 273 278 276 279 269 277 273 262 257 224 202 167 184 163 236 244 253 252 227 206 182 193 203 212 216 222 235 237 221 216 224 233 230 223 221 221
193 156 221 205 211 223 259 299 303 295 289 280 267 260 254 227 221 203 146 61 165 194 210 203 238 331 171 178 175 179 176 195 205 229 242 240 236 234 239 240 232 224 223